Location: Kitt Peak
(31.9633°N, 111.6000°W)
Time: 03:23:13
(UTC-07:00)

Amateur Radio Satellites - All Passes

Search period start: 04 September 2015 02:53
Search period end: 05 September 2015 02:53
Location: Kitt Peak, 31.9633°N, 111.6000°W

Satellite Date Start Highest point End Downlink Frequencies (MHz)
Time Altitude Azimuth
RS-15 04 Sep 03:00:50 03:10:18 26° 255° (WSW) 03:19:15 29.354- 29.394
AO-7 04 Sep 03:05:27 03:10:57 20° 93° (E) 03:16:54 29.400- 29.500
Oscar 19 04 Sep 03:08:58 03:12:26 18° 292° (WNW) 03:15:40 437.125/150
VERMONT LUNAR 04 Sep 03:12:21 03:14:33 18° 351° (N) 03:16:43 437.305
KKS-1 04 Sep 03:15:46 03:20:04 47° 261° (W) 03:24:22 437.445
PHONESAT 2.4 04 Sep 03:26:20 03:29:45 78° 151° (SSE) 03:33:11 2401.200-2431.200
JAS-2 04 Sep 03:27:29 03:34:10 86° 102° (ESE) 03:40:00 435.910
O/OREOS (USA 219) 04 Sep 03:46:49 03:51:00 35° 66° (ENE) 03:55:13 437.305
MOZHAYETS 4 04 Sep 03:54:21 03:58:50 55° 75° (ENE) 04:03:21
ITAMSAT 1 04 Sep 04:16:01 04:19:19 17° 292° (WNW) 04:22:23 435.822/435.867
Gurwin Techsat 1B 04 Sep 04:20:35 04:22:54 12° 294° (WNW) 04:24:53 435.225
HORYU 2 04 Sep 04:23:36 04:28:04 81° 102° (ESE) 04:32:29 437.375
STARS 04 Sep 04:26:42 04:28:49 13° 268° (W) 04:30:41 437.465
GONETS M04 04 Sep 04:28:55 04:33:26 14° 295° (WNW) 04:37:16
Cosmos 2499 04 Sep 04:36:36 04:44:44 49° 282° (WNW) 04:53:12 435.465 / 435.565
VERMONT LUNAR 04 Sep 04:49:32 04:51:36 17° 7° (N) 04:53:41 437.305
AO-7 04 Sep 04:56:12 05:04:26 69° 289° (WNW) 05:12:37 29.400- 29.500
PHONESAT 2.4 04 Sep 05:04:56 05:07:52 26° 346° (NNW) 05:10:47 2401.200-2431.200
JAS-2 04 Sep 05:15:35 05:18:15 12° 299° (WNW) 05:20:25 435.910
O/OREOS (USA 219) 04 Sep 05:27:12 05:30:12 17° 259° (WSW) 05:32:58 437.305
CUTE-I 04 Sep 05:28:34 05:30:30 12° 91° (E) 05:32:49 437.470
MOZHAYETS 4 04 Sep 05:35:16 05:36:27 11° 270° (W) 05:37:16
STRAND 1 04 Sep 05:42:40 05:45:47 17° 68° (ENE) 05:49:08 437.568
CUBESAT XI-V 04 Sep 05:58:26 06:03:02 80° 260° (W) 06:07:37 437.345
YUBILEINY 04 Sep 06:02:47 06:05:20 12° 63° (ENE) 06:08:44 435.215
Cubesat XI-IV 04 Sep 06:22:06 06:27:14 48° 99° (E) 06:32:23 437.490
PRISM 04 Sep 06:23:18 06:26:41 26° 72° (ENE) 06:30:09 437.425
VERMONT LUNAR 04 Sep 06:25:33 06:28:26 47° 23° (NNE) 06:31:19 437.305
ISS 04 Sep 06:31:08 06:34:21 73° 134° (SE) 06:37:37 145.825
PHONESAT 2.4 04 Sep 06:43:52 06:46:24 19° 3° (N) 06:48:56 2401.200-2431.200
Cosmos 2491 04 Sep 06:46:53 06:50:15 13° 82° (E) 06:54:25 435.465 / 435.565
AO-7 04 Sep 06:53:10 06:56:01 12° 305° (NW) 06:58:14 29.400- 29.500
AIST 1 04 Sep 06:58:32 07:02:25 37° 92° (E) 07:06:22
CUTE-I 04 Sep 07:05:48 07:11:04 62° 285° (WNW) 07:16:19 437.470
STRAND 1 04 Sep 07:19:49 07:24:41 45° 261° (W) 07:29:32 437.568
HO-68 04 Sep 07:54:41 08:00:03 23° 94° (E) 08:05:40 435.675
YUBILEINY 04 Sep 07:55:01 08:03:53 80° 83° (E) 08:12:39 435.215
PRISM 04 Sep 07:59:16 08:02:07 18° 266° (W) 08:04:51 437.425
VERMONT LUNAR 04 Sep 08:02:25 08:04:41 19° 216° (SW) 08:06:53 437.305
Cubesat XI-IV 04 Sep 08:03:29 08:07:00 17° 292° (WNW) 08:10:18 437.490
BRITE-PL 04 Sep 08:05:35 08:11:15 83° 283° (WNW) 08:16:57 437.365/2234.400
ISS 04 Sep 08:10:00 08:11:09 11° 330° (NNW) 08:12:12 145.825
DOVE 4 04 Sep 08:10:00 08:14:51 37° 96° (E) 08:19:37 437.250
COMPASS 1 04 Sep 08:10:18 08:11:06 11° 91° (E) 08:12:12 437.405
GOMX 1 04 Sep 08:14:56 08:20:26 73° 100° (E) 08:25:51 467.674
AAUSAT CUBESAT 2 04 Sep 08:17:02 08:17:48 11° 91° (E) 08:18:53 437.432
PHONESAT 2.4 04 Sep 08:21:38 08:24:50 37° 20° (NNE) 08:28:02 2401.200-2431.200
CINEMA 3 04 Sep 08:27:50 08:31:32 22° 93° (E) 08:35:15 145.822/145.860
Cosmos 2491 04 Sep 08:37:27 08:46:11 89° 279° (W) 08:54:56 435.465 / 435.565
AIST 1 04 Sep 08:38:22 08:40:19 12° 287° (WNW) 08:42:00
CUTE 1.7 + AOD 2 04 Sep 08:58:40 09:02:53 85° 101° (E) 09:07:05 437.475
SO-50 04 Sep 09:03:28 09:08:19 57° 60° (ENE) 09:13:00 436.795
Cosmos 2504 04 Sep 09:07:03 09:13:53 29° 72° (ENE) 09:20:34 435.465 / 435.565
ANTELSAT 04 Sep 09:07:12 09:09:16 13° 68° (ENE) 09:11:35 437.575/2403.000
ZACube-1 04 Sep 09:12:24 09:14:39 14° 91° (E) 09:17:05 437.345
CANX-2 04 Sep 09:13:24 09:17:32 53° 284° (WNW) 09:21:36 2200.000
CUSAT 1 04 Sep 09:15:05 09:21:17 25° 70° (ENE) 09:27:44 437.405
FUNcube-1 04 Sep 09:15:47 09:18:12 15° 92° (E) 09:20:49 145.935
PCSat 04 Sep 09:18:51 09:22:36 19° 53° (NE) 09:26:30 145.827
UWE-3 04 Sep 09:26:55 09:30:51 30° 96° (E) 09:34:44 435.000/436.395/437.385
JUGNU 04 Sep 09:27:44 09:30:00 12° 163° (SSE) 09:32:24 437.505
SEEDS 04 Sep 09:27:45 09:31:49 51° 284° (WNW) 09:35:52 437.485
CUBEBUG 2 04 Sep 09:28:02 09:32:24 42° 98° (E) 09:36:37 437.445
AUBIESAT-1 04 Sep 09:38:01 09:41:54 26° 68° (ENE) 09:45:48 437.475
HO-68 04 Sep 09:41:09 09:48:08 54° 289° (WNW) 09:55:02 435.675
COMPASS 1 04 Sep 09:43:06 09:47:02 43° 285° (WNW) 09:50:57 437.405
DELFI C3 04 Sep 09:45:38 09:49:17 35° 98° (E) 09:52:57 145.870
M-CUBED/EXP-1 PRIME 04 Sep 09:46:41 09:51:07 39° 69° (ENE) 09:55:31 437.505
DOVE 4 04 Sep 09:48:16 09:52:21 22° 290° (WNW) 09:56:12 437.250
AAUSAT CUBESAT 2 04 Sep 09:49:45 09:53:40 43° 285° (WNW) 09:57:34 437.432
YUBILEINY 04 Sep 09:54:36 09:59:51 16° 277° (W) 10:04:27 435.215
Oscar 11 04 Sep 09:54:50 09:59:08 81° 102° (ESE) 10:03:25 145.826/435.025
UNISAT 6 04 Sep 09:55:26 09:59:54 47° 74° (ENE) 10:04:26 437.425
GOMX 1 04 Sep 09:55:34 09:57:58 13° 293° (WNW) 10:00:03 467.674
PHONESAT 2.4 04 Sep 09:59:34 10:02:42 35° 214° (SW) 10:05:50 2401.200-2431.200
CINEMA 3 04 Sep 10:04:25 10:08:46 31° 288° (WNW) 10:12:53 145.822/145.860
BUGSAT 1 04 Sep 10:09:42 10:10:18 10° 68° (ENE) 10:11:10 437.445
DANDE 04 Sep 10:10:42 10:18:24 45° 77° (ENE) 10:26:27 436.750
DUCHIFAT 1 04 Sep 10:16:56 10:20:16 24° 72° (ENE) 10:23:43 145.980
POLYITAN 1 04 Sep 10:18:57 10:22:31 27° 73° (ENE) 10:26:11 437.675
POPSAT HIP 1 04 Sep 10:19:55 10:23:28 27° 72° (ENE) 10:27:07 437.405
TIGRISAT 04 Sep 10:22:05 10:26:46 88° 266° (W) 10:31:30 435.000
AISAT 04 Sep 10:33:19 10:35:56 16° 93° (E) 10:38:46 437.250
NANOSAT C BR1 04 Sep 10:35:16 10:39:14 41° 74° (ENE) 10:43:16 145.865
ESTCUBE 1 04 Sep 10:35:57 10:37:21 12° 91° (E) 10:39:04 437.505/2401.250
QB50P2 04 Sep 10:37:24 10:41:28 47° 75° (ENE) 10:45:36 145.880/145.840
Cosmos 2491 04 Sep 10:39:59 10:44:28 14° 295° (WNW) 10:48:14 435.465 / 435.565
ANTELSAT 04 Sep 10:41:04 10:45:38 51° 261° (W) 10:50:14 437.575/2403.000
SO-50 04 Sep 10:46:15 10:48:23 12° 252° (WSW) 10:50:14 436.795
ZACube-1 04 Sep 10:47:07 10:51:13 37° 286° (WNW) 10:55:11 437.345
QB50P1 04 Sep 10:50:25 10:54:37 67° 77° (ENE) 10:58:53 145.935-145.965
FUNcube-1 04 Sep 10:50:40 10:54:42 35° 287° (WNW) 10:58:36 145.935
CUSAT 1 04 Sep 10:56:18 11:04:24 65° 266° (W) 11:12:13 437.405
HUMSAT D 04 Sep 10:58:27 11:02:40 77° 283° (WNW) 11:06:47 437.325/437.525
Cosmos 2504 04 Sep 10:58:32 11:06:25 47° 270° (W) 11:13:41 435.465 / 435.565
VELOX 1 04 Sep 10:59:14 11:03:10 31° 97° (E) 11:07:09 145.980
PCSat 04 Sep 11:01:06 11:06:20 49° 249° (WSW) 11:11:30 145.827
UWE-3 04 Sep 11:03:56 11:07:10 19° 290° (WNW) 11:10:11 435.000/436.395/437.385
CUBEBUG 2 04 Sep 11:06:08 11:08:42 14° 291° (WNW) 11:11:01 437.445
AUBIESAT-1 04 Sep 11:12:26 11:16:28 27° 260° (W) 11:20:23 437.475
JUGNU 04 Sep 11:14:00 11:18:27 22° 172° (S) 11:22:55 437.505
DELFI C3 04 Sep 11:22:09 11:24:03 13° 290° (WNW) 11:25:45 145.870
M-CUBED/EXP-1 PRIME 04 Sep 11:22:34 11:25:57 18° 262° (W) 11:29:08 437.505
DX 1 04 Sep 11:29:39 11:34:01 66° 284° (WNW) 11:38:21 434.975-435.025
50 SAT 04 Sep 11:30:09 11:33:59 78° 283° (WNW) 11:37:47 437.505
UNISAT 6 04 Sep 11:34:33 11:36:57 13° 269° (W) 11:39:05 437.425
UKube-1 04 Sep 11:35:49 11:40:07 62° 284° (WNW) 11:44:24 .
SPROUT 04 Sep 11:37:23 11:39:29 14° 92° (E) 11:41:50 437.525
BUGSAT 1 04 Sep 11:41:26 11:45:21 47° 261° (W) 11:49:21 437.445
DUCHIFAT 1 04 Sep 11:52:42 11:56:00 21° 265° (W) 11:59:13 145.980
DANDE 04 Sep 11:54:02 12:01:25 36° 269° (W) 12:08:49 436.750
POLYITAN 1 04 Sep 11:55:18 11:58:26 19° 266° (W) 12:01:25 437.675
CUBEBUG 1 04 Sep 11:56:01 12:00:28 89° 283° (WNW) 12:04:55 437.445
POPSAT HIP 1 04 Sep 11:56:15 11:59:21 19° 266° (W) 12:02:19 437.405
AISAT 04 Sep 12:08:31 12:12:38 36° 287° (WNW) 12:16:43 437.250
ESTCUBE 1 04 Sep 12:10:12 12:14:32 48° 285° (WNW) 12:18:52 437.505/2401.250
NANOSAT C BR1 04 Sep 12:13:29 12:15:18 12° 269° (W) 12:16:52 145.865
QB50P2 04 Sep 12:16:32 12:17:40 11° 269° (W) 12:18:30 145.880/145.840
TISAT 1 04 Sep 12:23:52 12:27:28 27° 96° (E) 12:31:07 437.305
SRMSAT 04 Sep 12:31:57 12:36:00 19° 169° (S) 12:40:04 437.500
VELOX 1 04 Sep 12:36:19 12:39:31 19° 290° (WNW) 12:42:34 145.980
Oscar 19 04 Sep 12:40:29 12:45:15 40° 73° (ENE) 12:50:06 437.125/150
GONETS M04 04 Sep 12:43:16 12:51:08 36° 75° (ENE) 12:59:08
BEESAT 3 04 Sep 12:44:16 12:47:39 27° 112° (ESE) 12:51:07 437.485
RS-15 04 Sep 13:00:14 13:03:22 12° 101° (ESE) 13:07:46 29.354- 29.394
JUGNU 04 Sep 13:02:09 13:06:57 25° 182° (S) 13:11:42 437.505
BEESAT 2 04 Sep 13:02:19 13:05:55 32° 113° (ESE) 13:09:37 435.950
ITUPSAT 1 04 Sep 13:03:47 13:04:32 10° 90° (E) 13:05:40 437.325
ISS 04 Sep 13:04:23 13:05:06 11° 29° (NNE) 13:05:55 145.825
SPROUT 04 Sep 13:11:43 13:15:45 38° 286° (WNW) 13:19:44 437.525
BEESAT 04 Sep 13:31:37 13:35:26 24° 96° (E) 13:39:20 436.000
JAS-2 04 Sep 13:32:58 13:39:03 27° 67° (ENE) 13:45:26 435.910
ITAMSAT 1 04 Sep 13:48:23 13:53:15 44° 73° (ENE) 13:58:10 435.822/435.867
Gurwin Techsat 1B 04 Sep 13:54:17 13:59:30 65° 76° (ENE) 14:04:47 435.225
SWISSCUBE 04 Sep 13:57:33 14:02:12 54° 100° (E) 14:06:52 437.505
TISAT 1 04 Sep 13:59:56 14:03:03 19° 289° (WNW) 14:06:03 437.305
AO-7 04 Sep 14:00:11 14:05:31 20° 60° (ENE) 14:11:15 29.400- 29.500
AIST 2 04 Sep 14:07:02 14:10:43 31° 113° (ESE) 14:14:30 435.215
SRMSAT 04 Sep 14:19:52 14:24:36 25° 179° (S) 14:29:21 437.500
Oscar 19 04 Sep 14:21:07 14:24:47 19° 267° (W) 14:28:17 437.125/150
BEESAT 3 04 Sep 14:22:28 14:25:34 20° 307° (NW) 14:28:36 437.485
Cosmos 2499 04 Sep 14:34:19 14:42:24 49° 78° (ENE) 14:49:58 435.465 / 435.565
ITUPSAT 1 04 Sep 14:38:10 14:42:51 59° 285° (WNW) 14:47:32 437.325
ISS 04 Sep 14:38:41 14:41:55 80° 227° (SW) 14:45:09 145.825
GONETS M04 04 Sep 14:39:55 14:48:01 41° 271° (W) 14:55:58
BEESAT 2 04 Sep 14:41:10 14:44:03 18° 308° (NW) 14:46:49 435.950
STARS 04 Sep 14:44:42 14:46:07 12° 91° (E) 14:47:49 437.465
JUGNU 04 Sep 14:51:19 14:55:24 19° 191° (SSW) 14:59:25 437.505
RS-15 04 Sep 15:03:31 15:14:20 78° 115° (ESE) 15:25:34 29.354- 29.394
BEESAT 04 Sep 15:09:14 15:13:13 26° 289° (WNW) 15:17:07 436.000
KKS-1 04 Sep 15:11:34 15:15:54 47° 99° (E) 15:20:13 437.445
JAS-2 04 Sep 15:16:07 15:23:37 57° 261° (W) 15:31:19 435.910
HORYU 2 04 Sep 15:16:57 15:21:08 40° 74° (ENE) 15:25:21 437.375
ITAMSAT 1 04 Sep 15:29:38 15:33:00 17° 267° (W) 15:36:08 435.822/435.867
SWISSCUBE 04 Sep 15:37:30 15:39:39 13° 292° (WNW) 15:41:31 437.505
Gurwin Techsat 1B 04 Sep 15:38:06 15:40:01 11° 270° (W) 15:41:32 435.225
AIST 2 04 Sep 15:46:11 15:49:21 20° 307° (NW) 15:52:26 435.215
AO-7 04 Sep 15:49:13 15:57:34 78° 255° (WSW) 16:05:56 29.400- 29.500
MOZHAYETS 4 04 Sep 15:55:19 15:58:25 19° 93° (E) 16:01:43
SRMSAT 04 Sep 16:08:49 16:13:14 22° 188° (S) 16:17:36 437.500
STARS 04 Sep 16:18:35 16:22:52 47° 285° (WNW) 16:27:05 437.465
Cosmos 2499 04 Sep 16:28:18 16:35:09 27° 274° (W) 16:41:19 435.465 / 435.565
CUTE-I 04 Sep 16:45:58 16:48:23 14° 67° (ENE) 16:51:07 437.470
KKS-1 04 Sep 16:50:03 16:52:09 13° 292° (WNW) 16:54:00 437.445
HORYU 2 04 Sep 16:55:24 16:57:57 14° 267° (W) 17:00:17 437.375
RS-15 04 Sep 17:18:58 17:28:05 28° 318° (NW) 17:37:10 29.354- 29.394
MOZHAYETS 4 04 Sep 17:31:41 17:35:43 31° 287° (WNW) 17:39:41
Cubesat XI-IV 04 Sep 17:39:20 17:44:25 49° 74° (ENE) 17:49:33 437.490
AO-7 04 Sep 17:49:32 17:51:42 11° 271° (W) 17:52:58 29.400- 29.500
O/OREOS (USA 219) 04 Sep 17:53:39 17:58:11 79° 289° (WNW) 18:02:46 437.305
SRMSAT 04 Sep 17:59:33 18:01:49 12° 197° (SSW) 18:03:57 437.500
CUBESAT XI-V 04 Sep 18:00:06 18:04:24 37° 98° (E) 18:08:44 437.345
CUTE-I 04 Sep 18:22:46 18:28:01 61° 259° (W) 18:33:17 437.470
HO-68 04 Sep 18:23:35 18:23:57 10° 59° (ENE) 18:24:54 435.675
AIST 1 04 Sep 18:47:30 18:51:52 84° 264° (W) 18:56:15
Cosmos 2491 04 Sep 18:54:23 19:02:11 36° 75° (ENE) 19:10:11 435.465 / 435.565
YUBILEINY 04 Sep 18:57:17 19:02:01 17° 83° (E) 19:07:23 435.215
DOVE 4 04 Sep 19:11:24 19:14:46 21° 69° (ENE) 19:18:26 437.250
BRITE-PL 04 Sep 19:11:57 19:16:15 64° 76° (ENE) 19:20:57 437.365/2234.400
GOMX 1 04 Sep 19:18:25 19:22:39 41° 74° (ENE) 19:27:15 467.674
Cubesat XI-IV 04 Sep 19:21:31 19:24:50 16° 268° (W) 19:27:53 437.490
CINEMA 3 04 Sep 19:26:20 19:28:04 12° 67° (ENE) 19:30:06 145.822/145.860
STRAND 1 04 Sep 19:34:55 19:40:04 88° 274° (W) 19:45:11 437.568
CUBESAT XI-V 04 Sep 19:38:29 19:41:35 17° 290° (WNW) 19:44:30 437.345
PRISM 04 Sep 19:44:33 19:48:41 89° 102° (ESE) 19:52:49 437.425
CUTE 1.7 + AOD 2 04 Sep 19:46:48 19:50:34 31° 74° (ENE) 19:54:23 437.475
CANX-2 04 Sep 20:01:04 20:05:15 54° 76° (ENE) 20:09:27 2200.000
HO-68 04 Sep 20:03:34 20:10:40 71° 73° (ENE) 20:17:50 435.675
SEEDS 04 Sep 20:14:29 20:18:38 54° 76° (ENE) 20:22:47 437.485
UWE-3 04 Sep 20:20:09 20:22:46 16° 69° (ENE) 20:25:37 435.000/436.395/437.385
CUBEBUG 2 04 Sep 20:21:44 20:25:11 22° 71° (ENE) 20:28:51 437.445
COMPASS 1 04 Sep 20:28:50 20:32:59 63° 77° (ENE) 20:37:09 437.405
DELFI C3 04 Sep 20:29:56 20:31:23 12° 70° (ENE) 20:33:03 145.870
AAUSAT CUBESAT 2 04 Sep 20:35:02 20:39:10 62° 77° (ENE) 20:43:18 437.432
Oscar 11 04 Sep 20:44:55 20:48:46 33° 74° (ENE) 20:52:41 145.826/435.025
DOVE 4 04 Sep 20:48:08 20:52:17 32° 265° (W) 20:56:38 437.250
YUBILEINY 04 Sep 20:49:14 20:58:01 78° 277° (W) 21:06:53 435.215
Cosmos 2491 04 Sep 20:51:04 20:59:06 40° 271° (W) 21:06:59 435.465 / 435.565
GOMX 1 04 Sep 20:58:31 21:01:08 14° 270° (W) 21:03:35 467.674
CINEMA 3 04 Sep 21:00:06 21:04:44 58° 261° (W) 21:09:35 145.822/145.860
CUTE 1.7 + AOD 2 04 Sep 21:23:46 21:26:33 16° 267° (W) 21:29:09 437.475
Cosmos 2504 04 Sep 21:31:21 21:37:20 24° 85° (E) 21:43:55 435.465 / 435.565
ZACube-1 04 Sep 21:37:09 21:41:43 89° 54° (NE) 21:46:20 437.345
FUNcube-1 04 Sep 21:40:25 21:44:57 86° 254° (WSW) 21:49:35 145.935
HUMSAT D 04 Sep 21:45:03 21:49:02 38° 74° (ENE) 21:53:04 437.325/437.525
VELOX 1 04 Sep 21:53:18 21:55:50 16° 70° (ENE) 21:58:34 145.980
UNISAT 6 04 Sep 21:54:10 21:56:20 14° 91° (E) 21:58:44 437.425
UWE-3 04 Sep 21:54:36 21:58:57 41° 262° (W) 22:03:23 435.000/436.395/437.385
HO-68 04 Sep 21:54:36 21:59:04 16° 269° (W) 22:03:06 435.675
CUBEBUG 2 04 Sep 21:57:35 22:01:42 30° 264° (W) 22:05:49 437.445
RS-15 04 Sep 22:00:00 22:06:25 16° 29° (NNE) 22:13:35 29.354- 29.394
DELFI C3 04 Sep 22:02:18 22:06:07 39° 261° (W) 22:09:55 145.870
50 SAT 04 Sep 22:08:53 22:12:12 27° 73° (ENE) 22:15:34 437.505
CUSAT 1 04 Sep 22:17:54 22:20:15 15° 83° (E) 22:23:10 437.405
TIGRISAT 04 Sep 22:19:30 22:23:18 27° 96° (E) 22:27:02 435.000
DX 1 04 Sep 22:20:14 22:24:26 55° 75° (ENE) 22:28:43 434.975-435.025
Oscar 11 04 Sep 22:22:14 22:25:02 16° 267° (W) 22:27:40 145.826/435.025
UKube-1 04 Sep 22:25:31 22:29:44 57° 75° (ENE) 22:33:59 .
QB50P2 04 Sep 22:29:49 22:31:04 11° 91° (E) 22:32:36 145.880/145.840
ANTELSAT 04 Sep 22:38:08 22:42:29 48° 99° (E) 22:46:43 437.575/2403.000
QB50P1 04 Sep 22:41:37 22:44:11 16° 93° (E) 22:46:56 145.935-145.965
BEESAT 3 04 Sep 22:44:10 22:48:04 51° 60° (ENE) 22:51:54 437.485
CUBEBUG 1 04 Sep 22:47:24 22:51:24 39° 74° (ENE) 22:55:28 437.445
YUBILEINY 04 Sep 22:53:24 22:56:35 12° 298° (WNW) 22:58:55 435.215
AUBIESAT-1 04 Sep 22:57:54 23:01:11 32° 102° (ESE) 23:04:18 437.475
AISAT 04 Sep 23:00:48 23:05:12 75° 259° (W) 23:09:38 437.250
BEESAT 2 04 Sep 23:03:06 23:07:06 63° 61° (ENE) 23:11:02 435.950
ESTCUBE 1 04 Sep 23:04:34 23:09:02 83° 77° (ENE) 23:13:32 437.505/2401.250
M-CUBED/EXP-1 PRIME 04 Sep 23:07:35 23:11:14 57° 104° (ESE) 23:14:37 437.505
SO-50 04 Sep 23:12:45 23:17:22 57° 115° (ESE) 23:22:10 436.795
TISAT 1 04 Sep 23:13:29 23:14:39 11° 69° (ENE) 23:16:06 437.305
DANDE 04 Sep 23:18:12 23:21:30 42° 91° (E) 23:25:52 436.750
Cosmos 2504 04 Sep 23:21:00 23:28:59 58° 280° (W) 23:37:24 435.465 / 435.565
HUMSAT D 04 Sep 23:22:35 23:24:56 14° 268° (W) 23:27:04 437.325/437.525
VELOX 1 04 Sep 23:28:03 23:32:06 36° 262° (W) 23:36:10 145.980
BUGSAT 1 04 Sep 23:28:20 23:32:13 34° 98° (E) 23:36:07 437.445
UNISAT 6 04 Sep 23:29:09 23:33:22 39° 286° (WNW) 23:37:25 437.425
DUCHIFAT 1 04 Sep 23:40:56 23:45:14 87° 103° (ESE) 23:49:28 145.980
POLYITAN 1 04 Sep 23:44:03 23:48:22 80° 283° (WNW) 23:52:37 437.675
50 SAT 04 Sep 23:44:10 23:46:45 16° 267° (W) 23:49:10 437.505
POPSAT HIP 1 04 Sep 23:44:44 23:49:03 80° 283° (WNW) 23:53:18 437.405
PCSat 04 Sep 23:54:37 23:59:40 43° 111° (ESE) 00:04:49 145.827
TIGRISAT 04 Sep 23:56:30 23:59:53 21° 289° (WNW) 00:03:05 435.000
CUSAT 1 04 Sep 23:58:33 00:02:13 31° 288° (WNW) 00:06:53 437.405
NANOSAT C BR1 05 Sep 00:00:19 00:04:29 51° 285° (WNW) 00:08:36 145.865
SPROUT 05 Sep 00:00:21 00:04:38 85° 78° (ENE) 00:08:58 437.525
QB50P2 05 Sep 00:03:08 00:07:14 44° 285° (WNW) 00:11:17 145.880/145.840
RS-15 05 Sep 00:10:40 00:22:22 59° 56° (NE) 00:34:27 29.354- 29.394
AIST 2 05 Sep 00:11:02 00:15:09 64° 61° (ENE) 00:19:13 435.215
QB50P1 05 Sep 00:16:18 00:20:09 32° 287° (WNW) 00:23:54 145.935-145.965
ANTELSAT 05 Sep 00:16:58 00:18:51 12° 292° (WNW) 00:20:27 437.575/2403.000
CUBEBUG 1 05 Sep 00:25:50 00:27:59 13° 268° (W) 00:29:54 437.445
VERMONT LUNAR 05 Sep 00:27:48 00:30:46 58° 150° (SSE) 00:33:44 437.305
AUBIESAT-1 05 Sep 00:34:15 00:35:35 11° 296° (WNW) 00:36:43 437.475
BEESAT 05 Sep 00:34:17 00:37:14 17° 69° (ENE) 00:40:22 436.000
TISAT 1 05 Sep 00:45:58 00:50:02 47° 261° (W) 00:54:07 437.305
SO-50 05 Sep 00:55:27 00:58:21 15° 312° (NW) 01:01:07 436.795
Oscar 19 05 Sep 00:57:39 01:01:28 21° 94° (E) 01:05:25 437.125/150
SWISSCUBE 05 Sep 00:59:28 01:03:46 35° 73° (ENE) 01:08:07 437.505
BUGSAT 1 05 Sep 01:04:47 01:07:25 16° 290° (WNW) 01:09:51 437.445
GONETS M04 05 Sep 01:37:51 01:45:59 49° 90° (E) 01:54:16
PCSat 05 Sep 01:39:10 01:43:19 21° 306° (NW) 01:47:20 145.827
ITUPSAT 1 05 Sep 01:39:50 01:44:37 89° 259° (W) 01:49:24 437.325
VERMONT LUNAR 05 Sep 02:04:44 02:07:18 25° 344° (NNW) 02:09:51 437.305
KKS-1 05 Sep 02:05:28 02:08:59 24° 71° (ENE) 02:12:37 437.445
ITAMSAT 1 05 Sep 02:06:39 02:10:44 24° 95° (E) 02:14:56 435.822/435.867
BEESAT 05 Sep 02:10:19 02:14:48 39° 262° (W) 02:19:14 436.000
Gurwin Techsat 1B 05 Sep 02:15:41 02:20:36 39° 98° (E) 02:25:33 435.225
RS-15 05 Sep 02:23:52 02:34:31 36° 252° (WSW) 02:44:58 29.354- 29.394
JAS-2 05 Sep 02:33:27 02:38:46 28° 92° (E) 02:43:44 435.910
Oscar 19 05 Sep 02:36:11 02:40:55 36° 288° (WNW) 02:45:34 437.125/150
SWISSCUBE 05 Sep 02:38:26 02:41:45 18° 266° (W) 02:44:52 437.505
PHONESAT 2.4 05 Sep 02:40:33 02:43:54 53° 149° (SSE) 02:47:15 2401.200-2431.200
